Licenciado Gustavo Díaz Ordaz International Airport
MMPR : rendu visible

Aérodrome :











RETROUVEZ-NOUS SUR...

 
LOGIN :

S'inscrire | Disclaimer

   EN    FR    IT 

 









Légende :    VFR   VFR Marginal   IFR   IFR Intensif   IFR Très Intensif
Visi : 
Plafond : 
>= 8 km
>= 3000ft
5 à 8 km
1000 à 3000 ft
1500m à 5 km
500 à 1000 ft
800 à 1500m
200 à 500 ft
< 800m
< 200 ft
Symboles :   Orages  Brouillard  Fortes neiges  Fortes précipitations  Vent > 20 kt







- Altitude de l'aérodrome : 23 ft
- Code IATA : PVR


MMPR - Licenciado Gustavo Díaz Ordaz International

DERNIER METAR :
  • 251845Z 22012KT 15SM SCT020 31/19 A2983 RMK 8/100

METARs EXPIRÉS :
  • 251744Z 21010KT 15SM FEW020 31/18 A2985 RMK SLP107 57001 902 8/100
  • 251642Z 22010KT 15SM FEW020 31/19 A2985 RMK 8/100

TAF TAF MMPR
Valide du 25 à 18h jusqu'au 27 à 00h UTC


251726Z 2518/2624 22010KT P6SM SCT020 TX32/2522Z TN27/2613Z
BECMG 2520/2521 22015KT
FM260200 00000KT P6SM BKN020
BECMG 2612/2613 SCT020
FM261800 22008KT P6SM SCT020 BKN250
BECMG 2620/2621 22015KT
FIR MMFR / Amérique du Nord



MET'MAP, la Météo Aéronautique d'un coup d'oeil ! - Copyright ORBIFLY Décembre 2007 - Disclaimer

ORBIFLY MET'MAP TEAM :

Programmation & Développement : Alexandra Zaïnal
Conception & Développement : Baudouin d'Aumeries
Co-Programmation & Développement : Marc-Olivier Méhu
Soutien technique & logistique : Manuel Goepfert

Contact : metmap@orbifly.com




SOURCES & CREDITS :

   NOAA       Earth
Advisory